Hourly Data Report for July 01, 2021

BORDEN AWOS
ONTARIO
Current Station Operator: DND

44°16'20.000" N
79°54'42.000" W
222.50 m
611B002
71534
YBN

Download Data

Hourly Data (July 2021)
Hourly Data Report for July 1, 2021
TIME
LST
Temp Definition
°C
Dew Point Definition
°C
Rel Hum Definition
%
Precip. Amount Definition
mm

Wind Dir Definition
10's deg

Wind Spd Definition
km/h
Visibility Definition
km
Stn Press Definition
kPa
Hmdx Definition


Wind Chill Definition


Weather Definition


00:00 15.6 15.3 98   21 6 11.3 98.74     LegendNANA
01:00 15.7 15.5 99     0 14.5 98.73     LegendNANA
02:00 16.0 15.8 99   3 6 14.5 98.69     LegendNANA
03:00 15.3 15.1 99   25 4 14.5 98.69     LegendNANA
04:00 13.9 13.8 99     0 14.5 98.67     LegendNANA
05:00 15.5 15.4 99   32 4 14.5 98.69     LegendNANA
06:00 16.7 16.1 96   36 7 14.5 98.71     LegendNANA
07:00 17.0 15.7 92   34 11 14.5 98.71     LegendNANA
08:00 18.6 15.9 84   30 7 14.5 98.70     LegendNANA
09:00 19.8 16.1 79   34 15 14.5 98.68     LegendNANA
10:00 17.8 15.6 87   35 17 14.5 98.72     LegendNANA
11:00 21.6 15.6 69   32 17 14.5 98.70 26   LegendNANA
12:00 21.5 14.5 64   32 19 14.5 98.68 25   LegendNANA
13:00
14:00 21.3 15.2 68   32 20 14.5 98.64 25   LegendNANA
15:00 20.7 15.0 70   32 22 14.5 98.61 25   LegendNANA
16:00 19.9 14.3 70   32 24 14.5 98.60     LegendNANA
17:00 19.1 14.2 73   32 20 14.5 98.59     LegendNANA
18:00 18.7 13.9 74   33 17 14.5 98.63     LegendNANA
19:00 17.9 13.7 76   32 17 14.5 98.64     LegendNANA
20:00 16.6 14.1 85   30 15 14.5 98.62     LegendNANA
21:00 15.9 14.2 90   35 7 14.5 98.66     LegendNANA
22:00 15.9 13.6 86   32 9 14.5 98.66     LegendNANA
23:00 15.5 14.1 91   33 9 14.5 98.66     LegendNANA

Notes on Data Quality.

Legend

  • E = Estimated
  • M = Missing
  • NA = Not Available*
  • [empty] = Indicates an unobserved value
Date modified: